Location: Bas-Clignon
(44.2000°N, 6.6333°E)
Time: 02:46:18
(UTC+00:00)

DMSP B5D2-2 - Pass Details

Date: 03 February 2023
Orbit: 788 x 805 km, 98.3° (Epoch: 27 March)

Event Time Altitude Azimuth Distance (km) Brightness Sun altitude
Rises 17:28:11 0° 13° (NNE) 3,331 7.0 -8.1°
Reaches altitude 10° 17:30:32 10° 13° (NNE) 2,394 6.3 -8.5°
Maximum altitude 17:35:51 88° 282° (WNW) 809 4.1 -9.4°
Drops below altitude 10° 17:41:06 10° 196° (SSW) 2,367 6.9 -10.3°
Sets 17:43:24 0° 196° (SSW) 3,291 7.7 -10.7°
